| time (UTC) | temp F | wind direction | speed MPH | gust MPH | rain 1hr in | rain 24hr in | rain mn in | humidity % | barometer mb |
| 20260503184710 | 47 | 268 | 8.0 | 9.0 | 0.00 | 0.00 | 0.00 | 100 | 1007.8 |
| 20260503182709 | 47 | 284 | 6.0 | 8.0 | 0.00 | 0.00 | 0.00 | 100 | 1007.7 |
| 20260503180709 | 46 | 279 | 8.0 | 9.0 | 0.00 | 0.00 | 0.00 | 100 | 1007.7 |
| 20260503174710 | 46 | 261 | 10.0 | 11.0 | 0.00 | 0.00 | 0.00 | 100 | 1007.7 |
| 20260503172716 | 46 | 256 | 11.0 | 12.0 | 0.00 | 0.00 | 0.00 | 100 | 1007.7 |
| 20260503170709 | 46 | 253 | 9.0 | 10.0 | 0.00 | 0.00 | 0.00 | 100 | 1007.6 |
| 20260503150709 | 47 | 252 | 14.0 | 19.0 | 0.00 | 0.00 | 0.00 | 100 | 1008.1 |
| 20260503130708 | 49 | 254 | 14.0 | 19.0 | 0.00 | 0.00 | 0.00 | 97 | 1008.3 |
| 20260503110708 | 51 | 246 | 16.0 | 19.0 | 0.00 | 0.00 | 0.00 | 84 | 1008.3 |
| 20260503080708 | 47 | 250 | 7.0 | 8.0 | 0.00 | 0.00 | 0.00 | 100 | 1008.2 |
| 20260503072707 | 49 | 295 | 4.0 | 6.0 | 0.00 | 0.00 | 0.00 | 94 | 1007.7 |
| 20260503070707 | 48 | 335 | 4.0 | 8.0 | 0.00 | 0.00 | 0.00 | 100 | 1007.4 |
| 20260503054707 | 46 | 265 | 6.0 | 9.0 | 0.00 | 0.00 | 0.00 | 100 | 1006.6 |
| 20260503052707 | 46 | 296 | 4.0 | 9.0 | 0.00 | 0.00 | 0.00 | 100 | 1006.6 |
| 20260503050707 | 46 | 304 | 6.0 | 9.0 | 0.00 | 0.00 | 0.00 | 100 | 1006.3 |
| 20260503044707 | 44 | 317 | 7.0 | 10.0 | 0.00 | 0.00 | 0.00 | 100 | 1006.2 |
| 20260503042707 | 43 | 268 | 7.0 | 9.0 | 0.00 | 0.00 | 0.00 | 100 | 1005.9 |
| 20260503040706 | 43 | 267 | 11.0 | 13.0 | 0.00 | 0.00 | 0.00 | 100 | 1006.0 |
| 20260503034707 | 42 | 265 | 12.0 | 15.0 | 0.00 | 0.00 | 0.00 | 100 | 1005.9 |
| 20260503032707 | 42 | 257 | 14.0 | 17.0 | 0.00 | 0.00 | 0.00 | 100 | 1005.6 |
| 20260503030707 | 42 | 255 | 12.0 | 16.0 | 0.00 | 0.00 | 0.00 | 100 | 1005.7 |
| 20260503024707 | 42 | 259 | 13.0 | 16.0 | 0.00 | 0.00 | 0.00 | 100 | 1005.7 |
| 20260503022706 | 41 | 263 | 14.0 | 17.0 | 0.00 | 0.00 | 0.00 | 100 | 1005.8 |
| 20260503020706 | 42 | 256 | 18.0 | 22.0 | 0.00 | 0.00 | 0.00 | 100 | 1005.8 |
| 20260503014706 | 42 | 249 | 18.0 | 21.0 | 0.00 | 0.00 | 0.00 | 100 | 1005.4 |
| 20260503012706 | 42 | 249 | 17.0 | 20.0 | 0.00 | 0.00 | 0.00 | 100 | 1005.5 |
| 20260503010706 | 42 | 249 | 18.0 | 21.0 | 0.00 | 0.00 | 0.00 | 100 | 1005.7 |
| 20260503004706 | 42 | 248 | 17.0 | 19.0 | 0.00 | 0.00 | 0.00 | 100 | 1005.9 |
| 20260503002706 | 42 | 249 | 17.0 | 20.0 | 0.00 | 0.00 | 0.00 | 100 | 1006.1 |
| 20260503000706 | 42 | 252 | 17.0 | 20.0 | 0.00 | 0.00 | 0.00 | 100 | 1006.3 |
| 20260502234706 | 42 | 250 | 17.0 | 19.0 | 0.00 | 0.00 | 0.00 | 100 | 1006.6 |
| 20260502232706 | 42 | 248 | 19.0 | 23.0 | 0.00 | 0.00 | 0.00 | 100 | 1006.7 |
| 20260502230706 | 43 | 248 | 18.0 | 21.0 | 0.00 | 0.00 | 0.00 | 100 | 1006.8 |
| 20260502224706 | 43 | 250 | 19.0 | 22.0 | 0.00 | 0.00 | 0.00 | 100 | 1007.1 |
| 20260502222707 | 43 | 249 | 17.0 | 21.0 | 0.00 | 0.00 | 0.00 | 100 | 1007.2 |
| 20260502220706 | 43 | 247 | 17.0 | 20.0 | 0.00 | 0.00 | 0.00 | 100 | 1007.3 |
| 20260502214706 | 43 | 248 | 17.0 | 21.0 | 0.00 | 0.00 | 0.00 | 100 | 1007.6 |
| 20260502212705 | 44 | 245 | 17.0 | 21.0 | 0.00 | 0.00 | 0.00 | 100 | 1007.8 |
| 20260502210705 | 44 | 245 | 17.0 | 21.0 | 0.00 | 0.00 | 0.00 | 100 | 1007.9 |
| 20260502204706 | 44 | 242 | 15.0 | 19.0 | 0.00 | 0.00 | 0.00 | 100 | 1008.3 |
| 20260502202705 | 44 | 242 | 15.0 | 17.0 | 0.00 | 0.00 | 0.00 | 100 | 1008.5 |
| 20260502200705 | 44 | 243 | 14.0 | 17.0 | 0.00 | 0.00 | 0.00 | 100 | 1008.7 |
| 20260502194705 | 44 | 242 | 15.0 | 17.0 | 0.00 | 0.00 | 0.00 | 100 | 1008.8 |
| 20260502192706 | 44 | 248 | 16.0 | 19.0 | 0.00 | 0.00 | 0.00 | 100 | 1009.0 |
| 20260502190705 | 44 | 243 | 15.0 | 18.0 | 0.00 | 0.00 | 0.00 | 100 | 1009.1 |